Precipitable_Water
1.93 1.89 1.83 1.39 0.80 0.79 0.68 0.72 0.87 0.79 0.82 1.02 1.03 0.90 0.91 1.04 0.85 0.68 1.55 1.60 1.66 1.68 1.86 1.81 1.81 1.78 1.76 1.75 1.74 1.76 1.75 1.74 1.74 1.75 1.74 1.74 1.77 1.81 1.88 1.88 1.90 1.87 1.84 1.89 1.98 2.00 2.04 2.02 2.03
1.88 1.77 1.54 1.07 0.67 0.61 0.65 0.82 0.75 0.83 0.97 1.05 0.95 0.91 0.79 0.73 1.16 1.19 1.28 1.61 1.67 1.68 1.79 1.81 1.81 1.80 1.78 1.75 1.71 1.66 1.64 1.67 1.70 1.71 1.70 1.69 1.69 1.77 1.91 1.90 1.92 1.89 1.85 1.88 1.94 1.99 2.02 2.01 2.02
1.73 1.55 1.11 0.84 0.74 0.62 0.64 0.80 0.81 0.92 0.94 0.88 0.88 0.99 0.90 0.87 1.14 1.20 1.49 1.66 1.71 1.71 1.79 1.84 1.82 1.84 1.82 1.78 1.72 1.66 1.64 1.60 1.62 1.64 1.66 1.68 1.69 1.75 1.88 1.97 2.04 1.98 1.92 1.94 1.93 2.05 2.02 2.06 2.21
1.38 1.18 1.12 0.73 0.66 0.76 0.78 0.83 0.88 0.82 0.89 0.91 0.95 0.82 1.10 1.29 1.09 1.39 1.60 1.70 1.70 1.70 1.80 1.88 1.86 1.86 1.84 1.81 1.74 1.71 1.65 1.61 1.61 1.59 1.64 1.70 1.76 1.74 1.76 1.84 1.90 2.02 2.10 1.99 1.97 1.99 2.06 2.04 2.18
1.29 1.08 0.81 0.70 0.70 0.81 0.88 0.90 0.88 0.81 0.83 0.82 0.86 0.77 0.88 1.25 1.45 1.59 1.67 1.74 1.66 1.70 1.80 1.88 1.83 1.83 1.82 1.84 1.76 1.71 1.67 1.64 1.61 1.62 1.67 1.67 1.66 1.69 1.66 1.71 1.82 1.93 2.08 2.08 2.08 2.04 2.05 2.08 2.15
0.94 0.98 0.71 0.59 0.68 0.82 0.84 0.91 0.91 0.86 0.86 0.82 0.83 0.83 0.87 1.36 1.40 1.48 1.69 1.67 1.71 1.69 1.78 1.84 1.83 1.81 1.84 1.85 1.81 1.77 1.76 1.72 1.67 1.63 1.63 1.68 1.74 1.72 1.70 1.62 1.88 1.84 1.95 2.05 2.14 2.17 2.07 2.09 2.09
0.81 0.79 0.65 0.67 0.69 0.70 0.75 0.95 0.83 0.83 0.82 0.79 1.01 0.77 0.97 1.28 1.52 1.60 1.67 1.72 1.76 1.82 1.79 1.79 1.90 1.91 1.93 1.89 1.86 1.83 1.82 1.79 1.75 1.74 1.69 1.71 1.78 1.73 1.64 1.64 1.76 1.81 1.87 1.95 2.08 2.15 2.11 2.07 2.06
0.87 0.79 0.70 0.72 0.60 0.54 0.71 0.83 0.94 0.87 0.83 1.05 1.13 0.80 0.82 1.21 1.55 1.68 1.65 1.64 1.67 1.69 1.75 1.78 1.88 1.92 1.96 1.95 1.91 1.87 1.86 1.86 1.82 1.76 1.73 1.73 1.79 1.77 1.67 1.65 1.66 1.80 1.81 1.89 1.98 2.10 2.14 2.06 2.09
0.91 0.66 0.59 0.60 0.57 0.55 0.70 0.67 0.93 1.02 0.92 0.94 1.05 1.05 1.17 1.38 1.56 1.58 1.56 1.47 1.52 1.60 1.72 1.81 1.79 1.89 1.94 1.96 1.94 1.94 1.89 1.88 1.87 1.85 1.78 1.75 1.80 1.83 1.74 1.74 1.62 1.66 1.73 1.85 1.96 2.01 2.11 2.11 2.09
0.70 0.62 0.57 0.62 0.61 0.55 0.65 0.66 0.78 0.82 0.84 0.88 0.98 1.17 1.32 1.39 1.43 1.36 1.39 1.29 1.33 1.43 1.60 1.67 1.70 1.76 1.83 1.86 1.90 1.92 1.92 1.90 1.90 1.93 1.87 1.76 1.76 1.85 1.81 1.86 1.77 1.73 1.70 1.72 1.85 1.96 2.01 2.09 2.09
0.66 0.55 0.57 0.51 0.57 0.65 0.62 0.68 0.79 0.74 0.72 0.85 0.87 1.04 1.25 1.29 1.38 1.44 1.47 1.41 1.37 1.46 1.52 1.62 1.70 1.78 1.78 1.81 1.84 1.89 1.90 1.90 1.94 1.94 1.92 1.95 1.86 1.85 1.84 1.91 1.90 1.86 1.85 1.80 1.80 1.85 1.97 2.01 2.04
0.54 0.55 0.51 0.49 0.54 0.58 0.59 0.72 0.70 0.73 0.73 0.91 0.99 1.13 1.23 1.22 1.42 1.43 1.40 1.36 1.42 1.39 1.42 1.53 1.65 1.67 1.75 1.81 1.75 1.80 1.86 1.90 1.94 1.98 2.05 1.99 1.94 1.91 1.76 1.82 1.93 1.90 1.89 1.83 1.82 1.83 1.88 1.96 2.00
0.49 0.49 0.49 0.51 0.54 0.57 0.66 0.64 0.65 0.68 0.83 0.96 1.08 1.17 1.18 1.28 1.45 1.55 1.52 1.50 1.51 1.42 1.46 1.59 1.70 1.65 1.67 1.64 1.70 1.69 1.70 1.73 1.78 1.84 1.94 2.03 1.89 2.00 1.84 1.82 1.89 1.94 1.99 1.89 1.81 1.79 1.76 1.81 1.89
0.47 0.47 0.49 0.54 0.53 0.58 0.58 0.62 0.65 0.72 0.93 0.99 1.05 1.12 1.22 1.31 1.43 1.56 1.57 1.54 1.55 1.59 1.62 1.69 1.67 1.73 1.66 1.64 1.67 1.66 1.72 1.74 1.68 1.72 1.83 1.98 1.98 2.11 1.92 1.81 1.84 1.90 1.95 1.96 1.88 1.82 1.78 1.77 1.80
0.45 0.42 0.45 0.51 0.54 0.59 0.64 0.52 0.56 0.77 0.96 0.93 1.00 1.11 1.24 1.35 1.50 1.51 1.60 1.58 1.68 1.71 1.78 1.77 1.61 1.58 1.66 1.70 1.66 1.65 1.66 1.69 1.70 1.71 1.73 1.68 1.71 1.83 1.94 1.88 1.90 1.87 1.92 1.91 1.92 1.76 1.76 1.83 1.77
0.30 0.32 0.27 0.45 0.57 0.57 0.56 0.41 0.57 0.85 0.92 0.89 1.00 1.09 1.21 1.32 1.48 1.55 1.60 1.65 1.75 1.85 1.80 1.89 1.75 1.64 1.67 1.71 1.76 1.71 1.74 1.79 1.81 1.76 1.74 1.76 1.73 1.66 1.69 1.78 1.80 1.88 1.83 1.69 1.67 1.75 1.59 1.75 1.82
0.24 0.20 0.26 0.39 0.57 0.50 0.49 0.45 0.64 0.88 0.90 0.90 1.00 1.05 1.17 1.23 1.41 1.48 1.54 1.61 1.70 1.82 1.86 1.84 1.88 1.72 1.78 1.88 1.92 1.89 1.88 1.82 1.77 1.79 1.79 1.80 1.83 1.84 1.85 1.77 1.73 1.70 1.56 1.46 1.55 1.67 1.60 1.51 1.69
0.16 0.19 0.24 0.36 0.42 0.42 0.43 0.46 0.64 0.83 0.89 0.89 0.97 1.03 1.15 1.21 1.31 1.39 1.42 1.65 1.75 1.84 1.89 1.89 1.88 1.91 1.85 1.89 1.90 1.88 1.82 1.79 1.81 1.81 1.84 1.86 1.81 1.80 1.80 1.81 1.83 1.86 1.69 1.55 1.41 1.40 1.59 1.47 1.57
0.26 0.22 0.20 0.42 0.40 0.38 0.39 0.44 0.54 0.71 0.82 0.85 0.88 0.96 1.12 1.22 1.36 1.32 1.28 1.53 1.74 1.79 1.77 1.89 1.81 1.83 1.85 1.83 1.78 1.76 1.65 1.77 1.86 1.90 1.91 1.95 2.00 1.96 1.85 1.83 1.84 1.88 1.77 1.70 1.67 1.39 1.35 1.38 1.59
0.25 0.23 0.29 0.36 0.40 0.38 0.37 0.40 0.52 0.61 0.69 0.77 0.80 0.88 1.10 1.18 1.20 1.16 1.24 1.41 1.57 1.59 1.64 1.69 1.76 1.79 1.87 1.86 1.78 1.77 1.81 1.80 1.75 1.80 1.80 1.80 1.81 1.84 1.85 1.88 1.81 1.85 1.79 1.77 1.81 1.65 1.32 1.34 1.48
0.24 0.22 0.30 0.30 0.36 0.40 0.37 0.31 0.39 0.52 0.58 0.67 0.80 0.92 1.06 1.13 1.12 1.16 1.13 1.31 1.51 1.48 1.56 1.65 1.76 1.80 1.90 1.84 1.76 1.84 1.75 1.64 1.57 1.68 1.71 1.73 1.74 1.77 1.79 1.84 1.87 1.85 1.88 1.78 1.83 1.77 1.63 1.24 1.36
0.26 0.34 0.33 0.30 0.26 0.20 0.32 0.20 0.29 0.34 0.44 0.54 0.66 0.82 0.97 1.13 1.17 1.20 1.17 1.16 1.31 1.48 1.63 1.56 1.64 1.68 1.71 1.75 1.70 1.54 1.43 1.30 1.39 1.54 1.73 1.78 1.79 1.78 1.80 1.80 1.85 1.84 1.87 1.86 1.87 1.88 1.81 1.60 1.20
0.31 0.36 0.33 0.30 0.26 0.24 0.25 0.23 0.26 0.34 0.39 0.46 0.61 0.76 0.86 1.02 1.10 1.07 1.16 1.19 1.32 1.53 1.45 1.44 1.49 1.60 1.67 1.71 1.63 1.44 1.27 1.27 1.43 1.63 1.72 1.75 1.79 1.81 1.78 1.80 1.81 1.80 1.82 1.86 1.97 1.94 1.88 1.82 1.43
0.38 0.34 0.33 0.32 0.28 0.19 0.24 0.24 0.23 0.27 0.34 0.45 0.57 0.68 0.81 0.95 1.06 1.09 1.21 1.22 1.27 1.41 1.44 1.42 1.45 1.53 1.65 1.66 1.50 1.29 1.24 1.23 1.28 1.34 1.51 1.67 1.73 1.73 1.78 1.83 1.84 1.84 1.81 1.80 1.85 1.88 1.85 1.83 1.71
0.34 0.30 0.24 0.20 0.20 0.18 0.27 0.26 0.26 0.34 0.44 0.49 0.57 0.64 0.80 0.92 0.98 1.09 1.21 1.21 1.29 1.32 1.33 1.32 1.38 1.46 1.55 1.53 1.33 1.31 1.30 1.28 1.30 1.29 1.33 1.45 1.61 1.72 1.74 1.81 1.82 1.82 1.84 1.83 1.83 1.83 1.85 1.85 1.73
0.28 0.31 0.25 0.18 0.17 0.20 0.29 0.23 0.28 0.46 0.58 0.62 0.65 0.72 0.80 0.92 1.00 1.12 1.30 1.32 1.33 1.34 1.34 1.33 1.38 1.46 1.52 1.38 1.31 1.38 1.32 1.31 1.31 1.28 1.32 1.38 1.49 1.76 1.85 1.79 1.80 1.77 1.83 1.82 1.82 1.83 1.85 1.84 1.77
0.27 0.27 0.35 0.28 0.28 0.23 0.25 0.30 0.37 0.48 0.53 0.65 0.64 0.72 0.79 0.92 1.04 1.16 1.36 1.35 1.39 1.40 1.34 1.35 1.41 1.47 1.45 1.33 1.33 1.37 1.30 1.30 1.28 1.28 1.29 1.37 1.54 1.76 1.86 1.87 1.81 1.79 1.75 1.83 1.85 1.77 1.78 1.80 1.79
0.35 0.39 0.31 0.31 0.23 0.22 0.25 0.28 0.30 0.34 0.43 0.55 0.57 0.69 0.86 0.96 1.09 1.29 1.36 1.38 1.46 1.47 1.47 1.51 1.51 1.44 1.36 1.35 1.33 1.38 1.34 1.32 1.32 1.35 1.23 1.27 1.54 1.71 1.84 1.85 1.90 1.83 1.82 1.78 1.75 1.76 1.80 1.75 1.81
0.33 0.32 0.35 0.35 0.33 0.26 0.24 0.28 0.40 0.38 0.41 0.47 0.63 0.75 0.91 0.91 1.06 1.30 1.38 1.49 1.54 1.58 1.60 1.60 1.43 1.32 1.28 1.35 1.38 1.36 1.35 1.36 1.36 1.36 1.35 1.24 1.42 1.54 1.70 1.80 1.84 1.87 1.87 1.85 1.80 1.73 1.64 1.54 1.62
0.37 0.36 0.39 0.32 0.31 0.33 0.32 0.30 0.41 0.44 0.45 0.57 0.66 0.82 0.90 0.95 1.08 1.31 1.43 1.51 1.53 1.60 1.60 1.46 1.26 1.33 1.36 1.41 1.36 1.35 1.40 1.39 1.34 1.36 1.36 1.35 1.32 1.48 1.57 1.72 1.82 1.86 1.88 1.88 1.83 1.76 1.64 1.48 1.54
Wind_Speed
7 7 7 8 9 12 12 12 11 12 11 11 9 8 7 7 5 3 2 9 11 11 11 12 11 11 10 9 9 8 8 8 8 8 8 7 7 7 6 6 6 7 7 7 7 6 6 6 7
7 7 7 7 9 12 11 10 13 13 11 10 10 9 9 9 7 3 7 10 11 11 11 12 11 11 10 9 8 8 8 7 7 7 7 7 6 6 6 6 5 6 6 6 7 7 6 6 7
4 5 6 8 9 11 10 9 10 11 12 10 9 11 9 9 8 7 6 10 11 10 11 11 11 10 9 8 8 8 7 7 6 6 6 6 6 6 5 5 4 6 6 6 7 7 6 7 8
3 4 6 8 9 8 9 8 8 10 11 12 10 10 10 10 7 5 7 9 9 10 11 11 11 11 10 9 8 7 7 6 6 6 6 5 5 5 5 5 5 5 5 5 6 7 6 7 9
5 4 6 7 7 7 6 5 7 9 10 11 11 10 10 9 7 6 6 8 9 9 10 11 11 11 10 9 8 7 7 6 6 5 5 5 5 5 5 5 5 5 5 6 6 6 7 7 9
5 4 6 6 6 6 6 7 7 8 9 9 9 10 9 8 7 5 5 6 7 9 10 10 11 11 10 9 8 7 6 6 5 5 5 5 5 4 5 5 5 6 5 6 7 7 7 8 10
3 5 6 6 7 6 6 6 7 7 7 8 8 9 9 6 5 4 3 4 6 8 9 10 10 10 10 10 9 8 7 6 6 5 5 5 5 5 5 6 6 6 6 6 6 7 9 8 10
5 6 7 5 6 7 6 6 6 5 7 7 7 8 8 6 6 4 2 3 5 7 8 9 10 10 10 10 10 9 8 7 7 6 6 6 6 6 6 6 7 7 7 7 7 7 8 9 10
6 7 6 4 4 5 5 6 5 5 5 6 6 7 8 6 5 3 2 3 4 6 8 9 10 10 10 10 10 10 10 9 9 8 8 7 7 7 7 7 7 8 8 8 8 8 8 9 10
5 5 4 3 4 6 6 5 4 4 5 6 6 6 4 4 4 3 2 4 5 6 7 9 10 10 11 11 12 12 12 11 11 11 10 10 9 8 8 8 7 7 8 9 9 9 9 9 10
3 3 2 2 4 6 7 5 4 4 5 5 5 3 2 2 5 6 3 5 6 6 6 7 8 9 10 11 12 12 13 13 13 13 13 12 11 10 10 10 9 8 8 8 9 10 11 11 11
3 2 1 3 5 6 6 5 5 5 6 7 5 1 1 2 6 6 3 5 5 5 5 6 7 8 9 10 11 12 13 13 13 15 15 15 14 13 12 12 11 11 10 9 9 10 12 12 13
4 2 4 6 8 7 6 7 6 6 7 7 3 2 0 2 5 4 3 3 4 5 5 5 6 7 8 9 10 11 12 13 14 14 15 16 17 16 14 14 14 14 12 12 11 12 13 15 15
4 5 7 7 7 7 8 7 5 6 6 5 3 1 1 2 4 2 2 3 5 4 5 5 6 6 6 7 8 10 11 12 12 13 14 15 15 16 16 16 17 16 16 15 15 15 14 15 16
6 6 5 6 7 6 8 6 5 7 4 3 2 1 2 2 4 4 3 4 5 6 5 6 6 5 6 6 7 8 9 10 11 12 13 14 15 17 18 19 19 19 19 18 18 17 16 16 17
5 5 6 3 6 6 8 8 6 4 3 3 2 2 2 3 4 5 5 6 7 8 8 7 7 6 6 6 6 7 7 8 10 11 12 14 15 16 18 20 20 21 21 21 21 20 18 17 19
5 7 5 5 5 8 8 9 6 4 4 5 4 4 4 3 5 7 7 7 8 8 10 9 8 8 7 7 7 8 9 10 11 13 14 16 17 18 19 20 21 22 23 22 21 22 20 19 19
7 6 6 6 6 9 9 10 7 6 7 7 6 6 6 6 6 8 9 8 7 7 7 11 11 10 9 8 8 10 11 13 14 16 17 19 20 21 22 23 24 24 23 23 22 22 22 21 20
5 6 7 8 7 7 9 10 9 7 7 8 8 9 8 7 8 10 11 8 8 8 9 11 15 15 12 9 9 11 13 14 16 18 20 22 23 24 24 25 25 25 24 24 23 23 23 22 21
8 7 8 9 7 8 9 11 10 9 9 10 11 11 10 9 9 10 10 7 8 9 10 14 13 14 11 9 9 10 12 14 17 20 21 22 23 23 24 24 25 25 26 26 25 23 23 23 22
9 10 8 9 10 8 9 9 9 9 12 12 11 10 10 9 9 9 8 6 8 9 10 6 10 9 8 8 9 11 12 15 18 18 17 17 18 19 20 22 23 25 26 26 26 25 24 23 23
9 9 10 10 9 8 8 9 10 10 11 9 10 10 9 9 8 8 8 7 6 6 3 2 10 8 6 7 8 9 12 15 16 16 16 16 16 15 16 17 19 21 23 24 26 27 25 24 24
8 8 9 8 8 8 8 10 9 9 9 8 8 8 9 9 8 8 7 8 7 4 4 2 4 5 6 6 7 8 11 13 15 14 14 13 12 12 14 15 16 18 20 22 22 27 25 24 24
8 9 7 8 9 10 9 10 10 10 9 10 9 9 9 8 8 8 8 8 7 6 7 5 4 4 4 5 5 7 9 12 13 14 13 12 12 12 12 12 14 15 17 19 21 21 22 23 23
12 10 10 9 9 11 7 9 11 10 11 11 12 10 9 7 7 6 7 7 6 7 6 7 6 6 5 4 4 5 7 10 12 13 14 14 14 11 11 10 9 11 13 16 18 21 22 23 22
16 14 12 10 9 7 7 10 9 10 11 12 11 9 8 7 6 6 6 6 7 7 7 6 5 4 4 3 3 5 7 10 12 13 14 14 15 11 10 8 6 6 6 8 11 14 18 20 21
12 14 11 9 10 11 9 10 12 10 11 8 7 7 7 6 6 6 6 5 6 7 7 6 5 4 4 3 3 4 7 10 12 13 13 14 14 12 9 7 6 4 5 7 9 11 14 17 19
13 12 11 10 9 10 7 8 8 8 9 8 8 8 5 4 5 6 5 5 6 6 6 6 6 5 4 2 2 4 7 10 12 12 13 12 13 13 10 8 5 4 3 5 7 10 12 15 16
12 13 9 9 10 10 9 8 7 9 10 10 8 8 6 5 5 5 5 5 7 7 7 6 6 5 5 3 3 4 7 10 11 12 12 12 12 12 11 9 6 5 3 3 4 6 8 11 13
11 12 13 12 10 10 11 11 8 10 10 8 8 7 6 6 6 6 6 7 8 9 8 6 5 5 5 5 4 4 7 9 10 11 12 11 11 10 11 11 9 7 5 4 2 2 4 6 8
Wind_Direction
78 74 69 56 63 65 61 56 51 55 55 54 55 42 48 31 23 20 120 159 159 159 160 161 160 157 155 154 152 151 152 152 154 154 154 154 154 152 152 154 164 167 170 172 170 168 164 158 158
75 69 62 56 68 63 58 53 58 59 58 52 46 46 44 34 28 61 130 154 159 161 163 165 164 162 160 158 156 154 155 157 160 161 162 164 166 164 165 161 162 169 173 176 178 177 177 176 171
76 64 61 63 71 60 61 59 61 54 36 35 42 35 31 28 41 99 119 147 157 162 164 168 169 169 167 163 160 158 158 159 163 166 170 173 177 177 172 177 186 189 178 180 182 184 187 185 180
62 70 77 74 64 62 60 62 56 43 38 36 35 39 38 33 65 68 126 146 155 160 164 168 172 173 172 169 167 165 163 161 162 164 168 173 179 184 186 185 180 182 184 183 185 187 189 186 185
62 86 80 75 56 62 59 51 45 36 34 33 32 35 33 34 46 88 118 147 155 160 167 171 175 177 178 176 174 172 171 171 170 171 173 177 182 187 194 197 197 192 195 197 193 194 194 192 188
69 82 98 77 54 47 42 43 36 36 34 34 35 36 33 39 57 94 113 144 162 168 173 177 179 180 182 182 179 180 181 182 187 186 187 191 197 200 204 207 209 208 205 207 207 203 199 196 193
92 102 107 85 58 50 45 40 42 40 35 31 41 33 36 41 44 81 108 151 170 176 181 184 186 188 191 192 195 196 198 198 199 201 205 207 213 215 216 217 218 219 219 215 214 214 210 204 200
116 122 109 77 62 46 36 31 34 36 34 39 32 29 30 41 53 63 110 153 178 189 190 193 196 198 203 207 210 212 214 217 219 220 221 223 224 228 230 228 225 224 227 225 222 219 212 209 206
114 114 105 96 56 15 21 18 29 27 33 17 18 18 27 55 49 48 107 172 182 196 199 201 204 209 213 217 221 223 225 228 231 232 233 234 234 235 233 231 230 231 230 232 231 226 222 214 210
113 122 134 75 22 356 355 4 21 3 359 355 360 2 25 41 23 3 263 201 191 187 195 205 213 217 222 229 232 232 234 235 237 239 239 238 238 237 232 231 232 238 237 235 235 234 228 223 219
149 139 128 20 326 336 344 346 353 348 336 333 334 354 19 6 351 334 267 195 187 189 196 211 217 223 229 234 236 237 239 240 240 242 243 240 239 239 236 235 238 239 240 239 238 238 237 233 225
195 191 225 311 337 341 338 343 339 314 329 345 337 360 21 349 357 358 163 171 182 190 201 214 225 232 236 238 239 241 240 243 246 249 248 243 241 240 239 238 240 240 244 246 246 244 243 241 234
206 247 275 299 311 312 325 312 315 312 322 334 338 322 215 358 4 24 146 169 184 199 211 222 234 244 244 245 242 243 245 248 252 254 254 252 254 235 240 243 244 244 247 250 251 253 250 245 237
245 269 289 303 317 315 318 318 298 334 328 339 329 274 225 334 351 357 241 217 217 214 220 230 242 253 254 252 249 250 251 253 255 258 257 257 257 253 248 247 246 247 250 252 255 257 256 245 238
256 276 288 322 326 330 328 309 288 321 331 341 328 260 250 308 333 322 283 248 241 235 234 232 235 249 255 259 259 258 259 260 261 262 263 263 259 254 252 252 251 250 250 253 258 256 254 244 238
262 269 278 297 330 341 331 324 320 309 303 304 307 266 265 293 321 330 297 267 253 243 233 235 234 238 252 263 266 265 265 267 267 270 272 268 264 261 258 255 254 252 251 259 257 252 251 244 240
254 257 264 288 312 324 336 318 332 292 274 294 284 271 270 276 310 320 309 276 256 250 234 234 238 241 248 261 268 269 272 275 279 278 276 274 269 267 263 259 256 254 254 256 254 248 247 244 242
240 255 259 264 303 315 318 312 309 293 283 286 278 275 273 270 298 313 311 281 258 244 244 244 246 244 249 259 269 275 279 282 284 283 281 277 273 269 265 261 257 255 253 253 250 247 245 243 241
237 259 264 262 291 299 313 312 316 298 291 284 279 272 268 275 292 310 306 287 245 247 258 266 251 239 245 256 273 280 283 288 289 289 286 281 276 271 267 263 257 254 252 250 249 245 242 240 239
242 250 257 274 286 294 306 303 298 297 294 287 280 273 263 273 292 311 319 278 249 256 275 289 236 224 235 255 275 289 296 298 298 297 293 287 279 272 267 262 257 253 251 248 246 242 240 238 236
244 246 255 274 288 289 299 296 298 299 295 288 281 277 264 265 283 302 318 291 265 268 287 262 198 209 235 257 279 295 302 308 309 307 302 297 287 275 270 264 259 253 249 247 244 238 237 236 234
245 241 260 275 279 280 287 293 294 301 304 296 282 269 258 257 276 296 291 289 284 286 247 223 206 222 242 267 285 297 310 318 318 315 312 307 296 282 275 269 261 253 248 246 244 236 235 235 233
240 251 271 274 267 277 271 283 291 300 311 315 287 268 260 259 271 285 286 282 278 248 210 224 217 217 251 273 288 307 322 329 335 332 326 323 313 298 286 275 265 256 249 245 242 232 231 233 233
247 256 269 271 270 273 280 283 284 290 293 302 312 282 265 262 270 284 285 274 263 248 232 241 223 234 264 275 294 320 333 343 347 350 346 338 328 318 303 289 267 259 251 244 239 231 233 232 232
241 248 262 260 259 273 286 279 288 291 290 288 296 294 271 264 266 277 288 259 254 241 241 235 239 246 262 262 299 324 339 347 350 350 351 347 341 329 323 305 283 268 257 244 236 233 233 231 232
235 239 248 261 261 280 275 277 287 290 296 294 286 283 268 259 263 287 277 256 247 238 229 232 232 230 229 255 295 323 341 348 350 350 350 351 350 338 334 326 305 274 249 233 229 228 228 227 231
236 236 249 250 268 271 275 283 288 285 286 290 283 277 266 258 267 287 270 249 239 221 216 217 209 214 220 247 306 326 341 346 348 351 351 353 355 355 344 339 328 286 253 240 232 231 230 231 234
240 222 240 252 250 257 264 282 292 291 278 269 277 273 258 262 274 281 264 247 223 208 206 207 204 210 219 241 302 332 341 345 349 351 353 356 359 3 2 355 342 328 278 253 245 240 239 236 237
233 235 243 245 257 256 262 268 282 286 284 272 269 260 248 263 282 279 258 239 216 209 206 202 205 211 215 238 281 328 343 348 352 354 356 358 1 6 13 13 15 5 340 289 258 248 241 239 238
238 238 233 247 246 256 266 266 270 291 289 272 265 247 255 269 268 281 255 239 217 207 199 214 207 215 233 240 272 310 338 350 354 356 357 1 6 13 21 28 29 30 31 25 341 273 246 241 238